| time (UTC) | temp F | wind direction | speed MPH | gust MPH | rain 1hr in | rain 24hr in | rain mn in | humidity % | barometer mb |
| 20260505151634 | 53 | 193 | 2.0 | 4.0 | 0.00 | 0.00 | 0.00 | 83 | 1014.9 |
| 20260505150654 | 52 | 178 | 2.0 | 4.0 | 0.00 | 0.00 | 0.00 | 82 | 1014.9 |
| 20260505140634 | 43 | 0.0 | 0.0 | 0.00 | 0.00 | 0.00 | 99 | 1014.6 | |
| 20260505124634 | 42 | 0.0 | 0.0 | 0.00 | 0.00 | 0.00 | 97 | 1013.8 | |
| 20260505123654 | 42 | 0.0 | 0.0 | 0.00 | 0.00 | 0.00 | 96 | 1013.8 | |
| 20260505122655 | 42 | 0.0 | 0.0 | 0.00 | 0.00 | 0.00 | 95 | 1013.8 | |
| 20260505121634 | 42 | 0.0 | 0.0 | 0.00 | 0.00 | 0.00 | 93 | 1013.8 | |
| 20260505120634 | 43 | 0.0 | 0.0 | 0.00 | 0.00 | 0.00 | 94 | 1013.7 | |
| 20260505115634 | 44 | 189 | 0.0 | 1.0 | 0.00 | 0.00 | 0.00 | 93 | 1013.6 |
| 20260505114634 | 44 | 0.0 | 0.0 | 0.00 | 0.00 | 0.00 | 95 | 1013.5 | |
| 20260505113634 | 44 | 0.0 | 0.0 | 0.00 | 0.00 | 0.00 | 91 | 1013.5 | |
| 20260505112634 | 44 | 0.0 | 0.0 | 0.00 | 0.00 | 0.00 | 91 | 1013.6 | |
| 20260505111634 | 45 | 197 | 0.0 | 2.0 | 0.00 | 0.00 | 0.00 | 89 | 1013.5 |
| 20260505110634 | 45 | 0.0 | 0.0 | 0.00 | 0.00 | 0.00 | 90 | 1013.4 | |
| 20260505101634 | 45 | 0.0 | 0.0 | 0.00 | 0.00 | 0.00 | 86 | 1013.0 | |
| 20260505100634 | 46 | 0.0 | 0.0 | 0.00 | 0.00 | 0.00 | 84 | 1013.0 | |
| 20260505095634 | 46 | 0.0 | 0.0 | 0.00 | 0.00 | 0.00 | 82 | 1013.0 | |
| 20260505094634 | 47 | 0.0 | 0.0 | 0.00 | 0.00 | 0.00 | 80 | 1013.1 | |
| 20260505093634 | 47 | 0.0 | 0.0 | 0.00 | 0.00 | 0.00 | 78 | 1013.1 | |
| 20260505092654 | 48 | 0.0 | 0.0 | 0.00 | 0.00 | 0.00 | 77 | 1013.1 | |
| 20260505091634 | 48 | 0.0 | 0.0 | 0.00 | 0.00 | 0.00 | 76 | 1013.0 | |
| 20260505090714 | 49 | 0.0 | 0.0 | 0.00 | 0.00 | 0.00 | 73 | 1012.9 | |
| 20260505085634 | 50 | 0.0 | 0.0 | 0.00 | 0.00 | 0.00 | 72 | 1012.9 | |
| 20260505084634 | 51 | 0.0 | 0.0 | 0.00 | 0.00 | 0.00 | 69 | 1012.8 | |
| 20260505083634 | 52 | 0.0 | 1.0 | 0.00 | 0.00 | 0.00 | 65 | 1012.7 | |
| 20260505082634 | 52 | 0.0 | 1.0 | 0.00 | 0.00 | 0.00 | 67 | 1012.7 | |
| 20260505081634 | 54 | 0.0 | 0.0 | 0.00 | 0.00 | 0.00 | 61 | 1012.7 | |
| 20260505080634 | 56 | 266 | 0.0 | 2.0 | 0.00 | 0.00 | 0.00 | 57 | 1012.6 |
| 20260505075655 | 57 | 0.0 | 0.0 | 0.00 | 0.00 | 0.00 | 56 | 1012.6 | |
| 20260505074635 | 59 | 353 | 0.0 | 3.0 | 0.00 | 0.00 | 0.00 | 55 | 1012.5 |
| 20260505073654 | 59 | 322 | 3.0 | 5.0 | 0.00 | 0.00 | 0.00 | 54 | 1012.4 |
| 20260505072634 | 55 | 230 | 1.0 | 2.0 | 0.00 | 0.00 | 0.00 | 58 | 1012.6 |
| 20260505071635 | 55 | 0.0 | 0.0 | 0.00 | 0.00 | 0.00 | 60 | 1012.5 | |
| 20260505070635 | 56 | 0.0 | 1.0 | 0.00 | 0.00 | 0.00 | 54 | 1012.3 | |
| 20260505065634 | 56 | 0.0 | 0.0 | 0.00 | 0.00 | 0.00 | 53 | 1012.2 | |
| 20260505064714 | 56 | 0.0 | 0.0 | 0.00 | 0.00 | 0.00 | 56 | 1012.1 | |
| 20260505063654 | 57 | 0.0 | 0.0 | 0.00 | 0.00 | 0.00 | 56 | 1012.0 | |
| 20260505062634 | 61 | 256 | 1.0 | 2.0 | 0.00 | 0.00 | 0.00 | 47 | 1012.0 |
| 20260505061634 | 61 | 359 | 1.0 | 3.0 | 0.00 | 0.00 | 0.00 | 46 | 1012.0 |
| 20260505060634 | 62 | 29 | 2.0 | 5.0 | 0.00 | 0.00 | 0.00 | 45 | 1011.8 |
| 20260505055634 | 62 | 21 | 3.0 | 6.0 | 0.00 | 0.00 | 0.00 | 45 | 1011.8 |
| 20260505054635 | 62 | 13 | 2.0 | 6.0 | 0.00 | 0.00 | 0.00 | 45 | 1011.8 |
| 20260505053654 | 63 | 18 | 2.0 | 6.0 | 0.00 | 0.00 | 0.00 | 44 | 1011.8 |
| 20260505052634 | 64 | 19 | 1.0 | 4.0 | 0.00 | 0.00 | 0.00 | 43 | 1011.8 |
| 20260505051634 | 64 | 28 | 3.0 | 5.0 | 0.00 | 0.00 | 0.00 | 43 | 1011.7 |
| 20260505050654 | 64 | 21 | 3.0 | 7.0 | 0.00 | 0.00 | 0.00 | 43 | 1011.6 |
| 20260505041634 | 65 | 11 | 1.0 | 3.0 | 0.00 | 0.00 | 0.00 | 43 | 1011.3 |
| 20260505040654 | 65 | 19 | 2.0 | 3.0 | 0.00 | 0.00 | 0.00 | 42 | 1011.2 |
| 20260505035635 | 66 | 25 | 1.0 | 5.0 | 0.00 | 0.00 | 0.00 | 42 | 1010.9 |
| 20260505034634 | 67 | 5 | 4.0 | 7.0 | 0.00 | 0.00 | 0.00 | 41 | 1010.7 |
| 20260505033635 | 68 | 43 | 3.0 | 8.0 | 0.00 | 0.00 | 0.00 | 40 | 1010.5 |
| 20260505032654 | 69 | 35 | 4.0 | 8.0 | 0.00 | 0.00 | 0.00 | 38 | 1010.4 |
| 20260505031635 | 70 | 24 | 6.0 | 10.0 | 0.00 | 0.00 | 0.00 | 37 | 1010.2 |
| 20260505030635 | 71 | 26 | 8.0 | 13.0 | 0.00 | 0.00 | 0.00 | 35 | 1010.0 |
| 20260505025635 | 72 | 20 | 8.0 | 13.0 | 0.00 | 0.00 | 0.00 | 34 | 1009.8 |
| 20260505024635 | 73 | 68 | 7.0 | 14.0 | 0.00 | 0.00 | 0.00 | 34 | 1009.7 |
| 20260505023634 | 73 | 346 | 9.0 | 16.0 | 0.00 | 0.00 | 0.00 | 33 | 1009.6 |
| 20260505022635 | 74 | 23 | 7.0 | 12.0 | 0.00 | 0.00 | 0.00 | 33 | 1009.5 |
| 20260505021634 | 75 | 22 | 9.0 | 16.0 | 0.00 | 0.00 | 0.00 | 32 | 1009.5 |
| 20260505020634 | 75 | 33 | 8.0 | 14.0 | 0.00 | 0.00 | 0.00 | 32 | 1009.5 |
| 20260505015635 | 76 | 6 | 7.0 | 15.0 | 0.00 | 0.00 | 0.00 | 32 | 1009.4 |
| 20260505014655 | 76 | 47 | 7.0 | 12.0 | 0.00 | 0.00 | 0.00 | 33 | 1009.5 |
| 20260505013635 | 77 | 23 | 7.0 | 12.0 | 0.00 | 0.00 | 0.00 | 33 | 1009.5 |
| 20260505012635 | 78 | 356 | 5.0 | 10.0 | 0.00 | 0.00 | 0.00 | 33 | 1009.5 |
| 20260505011655 | 78 | 66 | 7.0 | 17.0 | 0.00 | 0.00 | 0.00 | 34 | 1009.5 |
| 20260505010655 | 79 | 354 | 8.0 | 17.0 | 0.00 | 0.00 | 0.00 | 33 | 1009.4 |
| 20260505005635 | 79 | 272 | 8.0 | 15.0 | 0.00 | 0.00 | 0.00 | 33 | 1009.4 |
| 20260505004635 | 80 | 52 | 8.0 | 15.0 | 0.00 | 0.00 | 0.00 | 35 | 1009.4 |
| 20260505003635 | 79 | 3 | 8.0 | 15.0 | 0.00 | 0.00 | 0.00 | 34 | 1009.5 |
| 20260505002635 | 80 | 225 | 8.0 | 13.0 | 0.00 | 0.00 | 0.00 | 34 | 1009.4 |
| 20260505001635 | 80 | 343 | 9.0 | 15.0 | 0.00 | 0.00 | 0.00 | 37 | 1009.5 |
| 20260505000635 | 81 | 18 | 5.0 | 10.0 | 0.00 | 0.00 | 0.00 | 34 | 1009.4 |
| 20260504235637 | 82 | 31 | 6.0 | 13.0 | 0.00 | 0.00 | 0.00 | 35 | 1009.4 |
| 20260504234655 | 80 | 2 | 7.0 | 11.0 | 0.00 | 0.00 | 0.00 | 36 | 1009.4 |
| 20260504233635 | 82 | 336 | 9.0 | 17.0 | 0.00 | 0.00 | 0.00 | 34 | 1009.4 |
| 20260504232635 | 81 | 351 | 7.0 | 13.0 | 0.00 | 0.00 | 0.00 | 34 | 1009.4 |
| 20260504231635 | 81 | 37 | 6.0 | 14.0 | 0.00 | 0.00 | 0.00 | 34 | 1009.4 |
| 20260504230655 | 81 | 17 | 7.0 | 15.0 | 0.00 | 0.00 | 0.00 | 34 | 1009.6 |
| 20260504225655 | 82 | 2 | 10.0 | 17.0 | 0.00 | 0.00 | 0.00 | 33 | 1009.8 |
| 20260504224637 | 81 | 349 | 6.0 | 11.0 | 0.00 | 0.00 | 0.00 | 33 | 1009.8 |
| 20260504223635 | 81 | 7 | 7.0 | 13.0 | 0.00 | 0.00 | 0.00 | 33 | 1010.0 |
| 20260504222655 | 81 | 33 | 8.0 | 14.0 | 0.00 | 0.00 | 0.00 | 33 | 1010.1 |
| 20260504221655 | 81 | 31 | 8.0 | 13.0 | 0.00 | 0.00 | 0.00 | 34 | 1010.1 |
| 20260504220635 | 82 | 66 | 8.0 | 15.0 | 0.00 | 0.00 | 0.00 | 33 | 1010.2 |
| 20260504215715 | 82 | 24 | 3.0 | 8.0 | 0.00 | 0.00 | 0.00 | 34 | 1010.3 |
| 20260504214635 | 80 | 360 | 5.0 | 10.0 | 0.00 | 0.00 | 0.00 | 36 | 1010.4 |
| 20260504213635 | 81 | 36 | 5.0 | 12.0 | 0.00 | 0.00 | 0.00 | 35 | 1010.4 |
| 20260504212735 | 80 | 47 | 6.0 | 15.0 | 0.00 | 0.00 | 0.00 | 36 | 1010.5 |
| 20260504211715 | 82 | 41 | 3.0 | 9.0 | 0.00 | 0.00 | 0.00 | 35 | 1010.5 |
| 20260504210635 | 81 | 60 | 4.0 | 11.0 | 0.00 | 0.00 | 0.00 | 34 | 1010.6 |
| 20260504205635 | 81 | 46 | 4.0 | 10.0 | 0.00 | 0.00 | 0.00 | 34 | 1010.7 |
| 20260504204635 | 81 | 18 | 7.0 | 12.0 | 0.00 | 0.00 | 0.00 | 33 | 1010.8 |
| 20260504203715 | 81 | 37 | 7.0 | 12.0 | 0.00 | 0.00 | 0.00 | 33 | 1010.9 |
| 20260504202636 | 80 | 15 | 4.0 | 8.0 | 0.00 | 0.00 | 0.00 | 33 | 1010.9 |
| 20260504201636 | 79 | 21 | 6.0 | 11.0 | 0.00 | 0.00 | 0.00 | 32 | 1011.1 |
| 20260504200635 | 78 | 39 | 7.0 | 13.0 | 0.00 | 0.00 | 0.00 | 34 | 1011.1 |
| 20260504195635 | 79 | 14 | 6.0 | 11.0 | 0.00 | 0.00 | 0.00 | 36 | 1011.2 |
| 20260504194635 | 78 | 33 | 6.0 | 12.0 | 0.00 | 0.00 | 0.00 | 36 | 1011.2 |
| 20260504193635 | 78 | 18 | 6.0 | 11.0 | 0.00 | 0.00 | 0.00 | 35 | 1011.4 |
| 20260504192635 | 78 | 11 | 6.0 | 12.0 | 0.00 | 0.00 | 0.00 | 37 | 1011.4 |
| 20260504191635 | 79 | 30 | 5.0 | 10.0 | 0.00 | 0.00 | 0.00 | 36 | 1011.5 |
| 20260504190635 | 78 | 25 | 4.0 | 9.0 | 0.00 | 0.00 | 0.00 | 38 | 1011.6 |
| 20260504185636 | 78 | 21 | 4.0 | 13.0 | 0.00 | 0.00 | 0.00 | 40 | 1011.7 |
| 20260504184636 | 77 | 21 | 6.0 | 13.0 | 0.00 | 0.00 | 0.00 | 43 | 1011.8 |
| 20260504183636 | 76 | 15 | 5.0 | 11.0 | 0.00 | 0.00 | 0.00 | 43 | 1011.9 |
| 20260504182636 | 75 | 10 | 6.0 | 12.0 | 0.00 | 0.00 | 0.00 | 44 | 1012.0 |
| 20260504181636 | 75 | 25 | 6.0 | 11.0 | 0.00 | 0.00 | 0.00 | 45 | 1012.1 |
| 20260504180636 | 75 | 33 | 5.0 | 10.0 | 0.00 | 0.00 | 0.00 | 44 | 1012.2 |
| 20260504175635 | 75 | 346 | 5.0 | 10.0 | 0.00 | 0.00 | 0.00 | 44 | 1012.2 |
| 20260504174635 | 74 | 34 | 7.0 | 11.0 | 0.00 | 0.00 | 0.00 | 45 | 1012.2 |
| 20260504173655 | 74 | 29 | 5.0 | 11.0 | 0.00 | 0.00 | 0.00 | 45 | 1012.1 |
| 20260504172636 | 73 | 293 | 2.0 | 5.0 | 0.00 | 0.00 | 0.00 | 46 | 1012.2 |
| 20260504171636 | 72 | 18 | 1.0 | 4.0 | 0.00 | 0.00 | 0.00 | 45 | 1012.3 |
| 20260504170636 | 71 | 160 | 2.0 | 6.0 | 0.00 | 0.00 | 0.00 | 46 | 1012.4 |